| time (UTC) | temp F | wind direction | speed MPH | gust MPH | rain 1hr in | rain 24hr in | rain mn in | humidity % | barometer mb |
| 20260507023052 | 60 | 245 | 6.0 | 14.0 | 0.00 | 0.00 | 0.00 | 79 | 1019.4 |
| 20260507022546 | 60 | 248 | 7.0 | 15.0 | 0.00 | 0.00 | 0.00 | 79 | 1019.4 |
| 20260507022046 | 60 | 205 | 6.0 | 15.0 | 0.00 | 0.00 | 0.00 | 79 | 1019.4 |
| 20260507021557 | 61 | 255 | 6.0 | 14.0 | 0.00 | 0.00 | 0.00 | 78 | 1019.5 |
| 20260507021046 | 61 | 221 | 6.0 | 13.0 | 0.00 | 0.00 | 0.00 | 77 | 1019.5 |
| 20260507020548 | 62 | 203 | 6.0 | 13.0 | 0.00 | 0.00 | 0.00 | 77 | 1019.5 |
| 20260507020051 | 62 | 227 | 6.0 | 15.0 | 0.00 | 0.00 | 0.00 | 76 | 1019.5 |
| 20260507015539 | 62 | 221 | 7.0 | 15.0 | 0.00 | 0.00 | 0.00 | 75 | 1019.5 |
| 20260507015046 | 63 | 227 | 8.0 | 16.0 | 0.00 | 0.00 | 0.00 | 74 | 1019.5 |
| 20260507015039 | 63 | 210 | 8.0 | 16.0 | 0.00 | 0.00 | 0.00 | 75 | 1019.5 |
| 20260507014659 | 63 | 216 | 8.0 | 18.0 | 0.00 | 0.00 | 0.00 | 74 | 1019.5 |
| 20260507013540 | 64 | 219 | 8.0 | 18.0 | 0.00 | 0.00 | 0.00 | 73 | 1019.5 |
| 20260507013039 | 64 | 210 | 7.0 | 14.0 | 0.00 | 0.00 | 0.00 | 72 | 1019.5 |
| 20260507012540 | 65 | 224 | 6.0 | 15.0 | 0.00 | 0.00 | 0.00 | 71 | 1019.5 |
| 20260507012042 | 66 | 231 | 6.0 | 13.0 | 0.00 | 0.00 | 0.00 | 70 | 1019.5 |
| 20260507012038 | 65 | 210 | 7.0 | 15.0 | 0.00 | 0.00 | 0.00 | 71 | 1019.5 |
| 20260507011059 | 67 | 199 | 6.0 | 15.0 | 0.00 | 0.00 | 0.00 | 69 | 1019.5 |
| 20260507011050 | 67 | 225 | 6.0 | 14.0 | 0.00 | 0.00 | 0.00 | 69 | 1019.5 |
| 20260507010046 | 67 | 227 | 6.0 | 15.0 | 0.00 | 0.00 | 0.00 | 68 | 1019.5 |
| 20260507005537 | 68 | 233 | 6.0 | 13.0 | 0.00 | 0.00 | 0.00 | 68 | 1019.5 |
| 20260507005032 | 68 | 238 | 7.0 | 13.0 | 0.00 | 0.00 | 0.00 | 67 | 1019.5 |
| 20260507004532 | 69 | 236 | 6.0 | 12.0 | 0.00 | 0.00 | 0.00 | 66 | 1019.5 |
| 20260507004032 | 70 | 229 | 5.0 | 13.0 | 0.00 | 0.00 | 0.00 | 65 | 1019.5 |
| 20260507003531 | 70 | 241 | 4.0 | 13.0 | 0.00 | 0.00 | 0.00 | 63 | 1019.5 |
| 20260507003031 | 71 | 254 | 4.0 | 11.0 | 0.00 | 0.00 | 0.00 | 64 | 1019.5 |
| 20260507002533 | 71 | 241 | 5.0 | 12.0 | 0.00 | 0.00 | 0.00 | 63 | 1019.5 |
| 20260507002028 | 71 | 237 | 4.0 | 12.0 | 0.00 | 0.00 | 0.00 | 62 | 1019.5 |
| 20260507001528 | 72 | 195 | 4.0 | 11.0 | 0.00 | 0.00 | 0.00 | 61 | 1019.4 |
| 20260507001027 | 73 | 285 | 4.0 | 11.0 | 0.00 | 0.00 | 0.00 | 60 | 1019.4 |
| 20260507000524 | 73 | 294 | 5.0 | 11.0 | 0.00 | 0.00 | 0.00 | 60 | 1019.4 |
| 20260507000025 | 73 | 221 | 5.0 | 12.0 | 0.00 | 0.00 | 0.00 | 59 | 1019.5 |
| 20260506235523 | 74 | 300 | 3.0 | 12.0 | 0.00 | 0.00 | 0.00 | 59 | 1019.5 |
| 20260506235023 | 73 | 278 | 3.0 | 12.0 | 0.00 | 0.00 | 0.00 | 61 | 1019.5 |
| 20260506234524 | 73 | 264 | 4.0 | 14.0 | 0.00 | 0.00 | 0.00 | 61 | 1019.4 |
| 20260506234023 | 72 | 194 | 5.0 | 14.0 | 0.00 | 0.00 | 0.00 | 60 | 1019.4 |
| 20260506233525 | 73 | 289 | 4.0 | 12.0 | 0.00 | 0.00 | 0.00 | 60 | 1019.4 |
| 20260506233026 | 73 | 217 | 5.0 | 13.0 | 0.00 | 0.00 | 0.00 | 60 | 1019.4 |
| 20260506233019 | 73 | 226 | 5.0 | 11.0 | 0.00 | 0.00 | 0.00 | 59 | 1019.4 |
| 20260506232027 | 74 | 306 | 5.0 | 13.0 | 0.00 | 0.00 | 0.00 | 57 | 1019.5 |
| 20260506232020 | 74 | 232 | 4.0 | 13.0 | 0.00 | 0.00 | 0.00 | 58 | 1019.4 |
| 20260506231030 | 74 | 285 | 5.0 | 13.0 | 0.00 | 0.00 | 0.00 | 57 | 1019.5 |
| 20260506230520 | 74 | 299 | 5.0 | 12.0 | 0.00 | 0.00 | 0.00 | 58 | 1019.5 |
| 20260506230020 | 74 | 324 | 6.0 | 13.0 | 0.00 | 0.00 | 0.00 | 58 | 1019.5 |
| 20260506225520 | 74 | 299 | 6.0 | 15.0 | 0.00 | 0.00 | 0.00 | 57 | 1019.5 |
| 20260506225021 | 74 | 284 | 6.0 | 15.0 | 0.00 | 0.00 | 0.00 | 58 | 1019.5 |
| 20260506224514 | 74 | 271 | 6.0 | 12.0 | 0.00 | 0.00 | 0.00 | 57 | 1019.6 |
| 20260506224013 | 74 | 271 | 7.0 | 15.0 | 0.00 | 0.00 | 0.00 | 58 | 1019.6 |
| 20260506223513 | 74 | 349 | 7.0 | 15.0 | 0.00 | 0.00 | 0.00 | 57 | 1019.6 |
| 20260506223012 | 74 | 299 | 6.0 | 15.0 | 0.00 | 0.00 | 0.00 | 56 | 1019.7 |
| 20260506222510 | 75 | 300 | 5.0 | 12.0 | 0.00 | 0.00 | 0.00 | 57 | 1019.7 |
| 20260506222012 | 75 | 338 | 6.0 | 14.0 | 0.00 | 0.00 | 0.00 | 57 | 1019.7 |
| 20260506221508 | 75 | 314 | 6.0 | 14.0 | 0.00 | 0.00 | 0.00 | 56 | 1020.0 |
| 20260506221016 | 74 | 300 | 6.0 | 14.0 | 0.00 | 0.00 | 0.00 | 57 | 1020.0 |
| 20260506221008 | 75 | 323 | 6.0 | 13.0 | 0.00 | 0.00 | 0.00 | 57 | 1020.0 |
| 20260506220007 | 73 | 300 | 7.0 | 14.0 | 0.00 | 0.00 | 0.00 | 59 | 1020.0 |
| 20260506215507 | 74 | 324 | 6.0 | 11.0 | 0.00 | 0.00 | 0.00 | 58 | 1020.0 |
| 20260506215007 | 75 | 285 | 5.0 | 10.0 | 0.00 | 0.00 | 0.00 | 57 | 1020.0 |
| 20260506214503 | 75 | 338 | 5.0 | 12.0 | 0.00 | 0.00 | 0.00 | 56 | 1020.0 |
| 20260506214002 | 75 | 321 | 6.0 | 12.0 | 0.00 | 0.00 | 0.00 | 57 | 1020.0 |
| 20260506213504 | 74 | 335 | 5.0 | 12.0 | 0.00 | 0.00 | 0.00 | 58 | 1020.0 |
| 20260506212957 | 75 | 15 | 4.0 | 10.0 | 0.00 | 0.00 | 0.00 | 55 | 1020.0 |
| 20260506212459 | 76 | 285 | 3.0 | 9.0 | 0.00 | 0.00 | 0.00 | 55 | 1020.0 |
| 20260506211955 | 75 | 292 | 3.0 | 9.0 | 0.00 | 0.00 | 0.00 | 56 | 1020.0 |
| 20260506211453 | 75 | 300 | 4.0 | 10.0 | 0.00 | 0.00 | 0.00 | 56 | 1020.0 |
| 20260506210950 | 75 | 356 | 3.0 | 10.0 | 0.00 | 0.00 | 0.00 | 56 | 1020.0 |
| 20260506210448 | 75 | 319 | 3.0 | 10.0 | 0.00 | 0.00 | 0.00 | 58 | 1020.1 |
| 20260506205948 | 74 | 8 | 4.0 | 10.0 | 0.00 | 0.00 | 0.00 | 56 | 1020.1 |
| 20260506205448 | 74 | 289 | 4.0 | 10.0 | 0.00 | 0.00 | 0.00 | 59 | 1020.1 |
| 20260506204948 | 74 | 355 | 4.0 | 9.0 | 0.00 | 0.00 | 0.00 | 55 | 1020.2 |
| 20260506204448 | 74 | 331 | 3.0 | 7.0 | 0.00 | 0.00 | 0.00 | 59 | 1020.2 |
| 20260506203946 | 74 | 343 | 3.0 | 6.0 | 0.00 | 0.00 | 0.00 | 58 | 1020.2 |
| 20260506203455 | 73 | 306 | 3.0 | 10.0 | 0.00 | 0.00 | 0.00 | 58 | 1020.3 |
| 20260506203446 | 74 | 302 | 3.0 | 10.0 | 0.00 | 0.00 | 0.00 | 58 | 1020.3 |
| 20260506202455 | 73 | 344 | 3.0 | 8.0 | 0.00 | 0.00 | 0.00 | 58 | 1020.5 |
| 20260506202445 | 73 | 335 | 3.0 | 8.0 | 0.00 | 0.00 | 0.00 | 57 | 1020.3 |
| 20260506201443 | 72 | 0 | 3.0 | 7.0 | 0.00 | 0.00 | 0.00 | 57 | 1020.5 |
| 20260506200949 | 72 | 240 | 4.0 | 9.0 | 0.00 | 0.00 | 0.00 | 57 | 1020.6 |
| 20260506200942 | 71 | 352 | 3.0 | 8.0 | 0.00 | 0.00 | 0.00 | 61 | 1020.5 |
| 20260506195934 | 72 | 304 | 4.0 | 10.0 | 0.00 | 0.00 | 0.00 | 59 | 1020.6 |
| 20260506195435 | 72 | 354 | 4.0 | 10.0 | 0.00 | 0.00 | 0.00 | 60 | 1020.6 |
| 20260506194933 | 71 | 328 | 3.0 | 11.0 | 0.00 | 0.00 | 0.00 | 62 | 1020.6 |
| 20260506194434 | 71 | 0 | 3.0 | 11.0 | 0.00 | 0.00 | 0.00 | 61 | 1020.6 |
| 20260506193928 | 71 | 319 | 3.0 | 10.0 | 0.00 | 0.00 | 0.00 | 62 | 1020.6 |
| 20260506193427 | 70 | 271 | 4.0 | 10.0 | 0.00 | 0.00 | 0.00 | 63 | 1020.7 |
| 20260506192926 | 70 | 339 | 4.0 | 11.0 | 0.00 | 0.00 | 0.00 | 63 | 1020.7 |
| 20260506192418 | 70 | 317 | 4.0 | 11.0 | 0.00 | 0.00 | 0.00 | 62 | 1020.7 |
| 20260506191915 | 70 | 291 | 4.0 | 7.0 | 0.00 | 0.00 | 0.00 | 64 | 1020.8 |
| 20260506191426 | 69 | 307 | 4.0 | 9.0 | 0.00 | 0.00 | 0.00 | 65 | 1020.8 |
| 20260506190917 | 69 | 345 | 5.0 | 10.0 | 0.00 | 0.00 | 0.00 | 65 | 1020.8 |
| 20260506190414 | 68 | 314 | 6.0 | 11.0 | 0.00 | 0.00 | 0.00 | 64 | 1020.8 |
| 20260506185918 | 68 | 0 | 3.0 | 7.0 | 0.00 | 0.00 | 0.00 | 65 | 1020.8 |
| 20260506185912 | 68 | 45 | 5.0 | 11.0 | 0.00 | 0.00 | 0.00 | 64 | 1020.8 |
| 20260506184913 | 69 | 359 | 4.0 | 7.0 | 0.00 | 0.00 | 0.00 | 65 | 1020.8 |
| 20260506184411 | 68 | 321 | 4.0 | 7.0 | 0.00 | 0.00 | 0.00 | 67 | 1020.8 |
| 20260506183912 | 68 | 326 | 4.0 | 7.0 | 0.00 | 0.00 | 0.00 | 65 | 1020.8 |
| 20260506183407 | 68 | 357 | 3.0 | 7.0 | 0.00 | 0.00 | 0.00 | 67 | 1020.7 |
| 20260506182859 | 67 | 357 | 3.0 | 7.0 | 0.00 | 0.00 | 0.00 | 67 | 1020.7 |
| 20260506182358 | 68 | 359 | 4.0 | 9.0 | 0.00 | 0.00 | 0.00 | 65 | 1020.7 |
| 20260506181858 | 67 | 2 | 4.0 | 9.0 | 0.00 | 0.00 | 0.00 | 67 | 1020.6 |
| 20260506181358 | 68 | 1 | 4.0 | 7.0 | 0.00 | 0.00 | 0.00 | 65 | 1020.6 |
| 20260506180857 | 68 | 331 | 3.0 | 7.0 | 0.00 | 0.00 | 0.00 | 65 | 1020.6 |
| 20260506180357 | 68 | 346 | 4.0 | 7.0 | 0.00 | 0.00 | 0.00 | 69 | 1020.6 |
| 20260506175854 | 68 | 300 | 4.0 | 7.0 | 0.00 | 0.00 | 0.00 | 64 | 1020.6 |
| 20260506175355 | 68 | 349 | 3.0 | 7.0 | 0.00 | 0.00 | 0.00 | 66 | 1020.6 |
| 20260506174855 | 68 | 31 | 1.0 | 4.0 | 0.00 | 0.00 | 0.00 | 68 | 1020.6 |
| 20260506174401 | 66 | 39 | 2.0 | 4.0 | 0.00 | 0.00 | 0.00 | 67 | 1020.6 |
| 20260506174355 | 67 | 77 | 1.0 | 4.0 | 0.00 | 0.00 | 0.00 | 66 | 1020.6 |
| 20260506173355 | 66 | 25 | 2.0 | 5.0 | 0.00 | 0.00 | 0.00 | 68 | 1020.6 |
| 20260506172854 | 66 | 2 | 1.0 | 5.0 | 0.00 | 0.00 | 0.00 | 67 | 1020.6 |
| 20260506172355 | 65 | 14 | 2.0 | 5.0 | 0.00 | 0.00 | 0.00 | 68 | 1020.6 |
| 20260506171855 | 65 | 21 | 2.0 | 5.0 | 0.00 | 0.00 | 0.00 | 68 | 1020.6 |
| 20260506171356 | 64 | 6 | 1.0 | 4.0 | 0.00 | 0.00 | 0.00 | 71 | 1020.6 |
| 20260506170851 | 63 | 169 | 1.0 | 3.0 | 0.00 | 0.00 | 0.00 | 72 | 1020.6 |
| 20260506170353 | 64 | 345 | 1.0 | 3.0 | 0.00 | 0.00 | 0.00 | 69 | 1020.6 |
| 20260506165846 | 65 | 230 | 2.0 | 6.0 | 0.00 | 0.00 | 0.00 | 68 | 1020.6 |
| 20260506165345 | 66 | 248 | 2.0 | 6.0 | 0.00 | 0.00 | 0.00 | 69 | 1020.6 |
| 20260506164840 | 64 | 299 | 2.0 | 6.0 | 0.00 | 0.00 | 0.00 | 71 | 1020.5 |
| 20260506164341 | 65 | 320 | 1.0 | 5.0 | 0.00 | 0.00 | 0.00 | 70 | 1020.5 |
| 20260506164330 | 64 | 311 | 1.0 | 4.0 | 0.00 | 0.00 | 0.00 | 74 | 1020.5 |
| 20260506163337 | 62 | 326 | 2.0 | 4.0 | 0.00 | 0.00 | 0.00 | 75 | 1020.5 |
| 20260506163329 | 63 | 254 | 1.0 | 4.0 | 0.00 | 0.00 | 0.00 | 74 | 1020.5 |
| 20260506162328 | 62 | 359 | 2.0 | 4.0 | 0.00 | 0.00 | 0.00 | 74 | 1020.5 |
| 20260506161835 | 61 | 285 | 1.0 | 4.0 | 0.00 | 0.00 | 0.00 | 76 | 1020.5 |
| 20260506161829 | 62 | 349 | 1.0 | 4.0 | 0.00 | 0.00 | 0.00 | 76 | 1020.5 |
| 20260506160834 | 61 | 289 | 1.0 | 4.0 | 0.00 | 0.00 | 0.00 | 76 | 1020.5 |
| 20260506160329 | 60 | 335 | 1.0 | 4.0 | 0.00 | 0.00 | 0.00 | 78 | 1020.5 |
| 20260506160322 | 61 | 320 | 2.0 | 4.0 | 0.00 | 0.00 | 0.00 | 77 | 1020.5 |
| 20260506155319 | 60 | 246 | 1.0 | 3.0 | 0.00 | 0.00 | 0.00 | 77 | 1020.5 |
| 20260506154809 | 60 | 241 | 1.0 | 4.0 | 0.00 | 0.00 | 0.00 | 79 | 1020.5 |
| 20260506154802 | 60 | 306 | 1.0 | 4.0 | 0.00 | 0.00 | 0.00 | 78 | 1020.5 |
| 20260506153755 | 60 | 304 | 2.0 | 4.0 | 0.00 | 0.00 | 0.00 | 79 | 1020.5 |
| 20260506153253 | 60 | 316 | 2.0 | 4.0 | 0.00 | 0.00 | 0.00 | 80 | 1020.3 |
| 20260506152744 | 60 | 307 | 2.0 | 5.0 | 0.00 | 0.00 | 0.00 | 80 | 1020.3 |
| 20260506152240 | 59 | 335 | 2.0 | 5.0 | 0.00 | 0.00 | 0.00 | 81 | 1020.3 |
| 20260506151741 | 59 | 328 | 2.0 | 5.0 | 0.00 | 0.00 | 0.00 | 82 | 1020.4 |
| 20260506151240 | 59 | 300 | 2.0 | 5.0 | 0.00 | 0.00 | 0.00 | 83 | 1020.4 |
| 20260506150739 | 58 | 299 | 1.0 | 5.0 | 0.00 | 0.00 | 0.00 | 83 | 1020.4 |
| 20260506150237 | 58 | 282 | 1.0 | 4.0 | 0.00 | 0.00 | 0.00 | 84 | 1020.3 |
| 20260506145731 | 58 | 220 | 1.0 | 3.0 | 0.00 | 0.00 | 0.00 | 84 | 1020.3 |
| 20260506145232 | 57 | 311 | 1.0 | 4.0 | 0.00 | 0.00 | 0.00 | 85 | 1020.3 |
| 20260506144657 | 57 | 281 | 1.0 | 4.0 | 0.00 | 0.00 | 0.00 | 85 | 1020.2 |
| 20260506144201 | 57 | 223 | 1.0 | 3.0 | 0.00 | 0.00 | 0.00 | 86 | 1020.2 |
| 20260506144157 | 57 | 224 | 0.0 | 2.0 | 0.00 | 0.00 | 0.00 | 86 | 1020.2 |
| 20260506143233 | 56 | 221 | 1.0 | 3.0 | 0.00 | 0.00 | 0.00 | 86 | 1020.1 |
| 20260506143132 | 57 | 222 | 1.0 | 3.0 | 0.00 | 0.00 | 0.00 | 86 | 1020.1 |
| 20260506143127 | 56 | 221 | 0.0 | 3.0 | 0.00 | 0.00 | 0.00 | 87 | 1020.1 |
| 20260506141620 | 56 | 221 | 0.0 | 2.0 | 0.00 | 0.00 | 0.00 | 87 | 1020.0 |
| 20260506141050 | 56 | 221 | 0.0 | 3.0 | 0.00 | 0.00 | 0.00 | 87 | 1020.0 |
| 20260506140545 | 56 | 221 | 1.0 | 3.0 | 0.00 | 0.00 | 0.00 | 87 | 1020.0 |
| 20260506140033 | 56 | 221 | 1.0 | 3.0 | 0.00 | 0.00 | 0.00 | 87 | 1019.7 |
| 20260506135535 | 56 | 215 | 1.0 | 3.0 | 0.00 | 0.00 | 0.00 | 88 | 1019.7 |
| 20260506135033 | 56 | 213 | 1.0 | 4.0 | 0.00 | 0.00 | 0.00 | 88 | 1019.7 |
| 20260506134534 | 56 | 233 | 1.0 | 4.0 | 0.00 | 0.00 | 0.00 | 88 | 1019.5 |
| 20260506134034 | 55 | 238 | 0.0 | 3.0 | 0.00 | 0.00 | 0.00 | 88 | 1019.5 |
| 20260506133532 | 55 | 238 | 0.0 | 3.0 | 0.00 | 0.00 | 0.00 | 88 | 1019.5 |
| 20260506133011 | 55 | 238 | 0.0 | 2.0 | 0.00 | 0.00 | 0.00 | 88 | 1019.4 |
| 20260506132459 | 55 | 238 | 2.0 | 4.0 | 0.00 | 0.00 | 0.00 | 88 | 1019.4 |
| 20260506132453 | 55 | 238 | 1.0 | 4.0 | 0.00 | 0.00 | 0.00 | 88 | 1019.4 |
| 20260506131433 | 55 | 253 | 1.0 | 4.0 | 0.00 | 0.00 | 0.00 | 88 | 1019.4 |
| 20260506130933 | 55 | 228 | 1.0 | 5.0 | 0.00 | 0.00 | 0.00 | 89 | 1019.4 |
| 20260506130440 | 55 | 231 | 1.0 | 5.0 | 0.00 | 0.00 | 0.00 | 89 | 1019.2 |
| 20260506125929 | 55 | 224 | 1.0 | 3.0 | 0.00 | 0.00 | 0.00 | 89 | 1019.2 |
| 20260506125428 | 55 | 220 | 1.0 | 3.0 | 0.00 | 0.00 | 0.00 | 89 | 1019.2 |
| 20260506124933 | 55 | 220 | 1.0 | 3.0 | 0.00 | 0.00 | 0.00 | 89 | 1019.1 |
| 20260506124929 | 55 | 220 | 1.0 | 3.0 | 0.00 | 0.00 | 0.00 | 89 | 1019.1 |
| 20260506123929 | 55 | 224 | 1.0 | 3.0 | 0.00 | 0.00 | 0.00 | 90 | 1019.1 |
| 20260506123428 | 54 | 224 | 0.0 | 3.0 | 0.00 | 0.00 | 0.00 | 90 | 1019.0 |
| 20260506122928 | 54 | 224 | 0.0 | 1.0 | 0.00 | 0.00 | 0.00 | 90 | 1019.0 |
| 20260506122423 | 54 | 224 | 0.0 | 1.0 | 0.00 | 0.00 | 0.00 | 90 | 1019.0 |
| 20260506121917 | 54 | 224 | 0.0 | 1.0 | 0.00 | 0.00 | 0.00 | 90 | 1019.0 |
| 20260506121357 | 54 | 224 | 0.0 | 1.0 | 0.00 | 0.00 | 0.00 | 90 | 1019.0 |
| 20260506120846 | 54 | 224 | 0.0 | 2.0 | 0.00 | 0.00 | 0.00 | 90 | 1019.0 |
| 20260506120320 | 54 | 224 | 0.0 | 2.0 | 0.00 | 0.00 | 0.00 | 90 | 1018.9 |
| 20260506115813 | 54 | 224 | 0.0 | 3.0 | 0.00 | 0.00 | 0.00 | 89 | 1018.9 |
| 20260506115307 | 54 | 224 | 0.0 | 3.0 | 0.00 | 0.00 | 0.00 | 89 | 1018.9 |
| 20260506114807 | 54 | 224 | 0.0 | 2.0 | 0.00 | 0.00 | 0.00 | 89 | 1018.7 |
| 20260506114256 | 54 | 224 | 0.0 | 2.0 | 0.00 | 0.00 | 0.00 | 89 | 1018.7 |
| 20260506113732 | 54 | 224 | 0.0 | 2.0 | 0.00 | 0.00 | 0.00 | 89 | 1018.7 |
| 20260506113209 | 54 | 224 | 1.0 | 3.0 | 0.00 | 0.00 | 0.00 | 89 | 1018.6 |
| 20260506112705 | 55 | 224 | 1.0 | 3.0 | 0.00 | 0.00 | 0.00 | 89 | 1018.6 |
| 20260506112151 | 55 | 224 | 0.0 | 2.0 | 0.00 | 0.00 | 0.00 | 89 | 1018.6 |
| 20260506111638 | 55 | 224 | 0.0 | 1.0 | 0.00 | 0.00 | 0.00 | 89 | 1018.5 |
| 20260506111137 | 55 | 224 | 0.0 | 1.0 | 0.00 | 0.00 | 0.00 | 89 | 1018.5 |
| 20260506111120 | 55 | 224 | 0.0 | 1.0 | 0.00 | 0.00 | 0.00 | 89 | 1018.5 |
| 20260506110728 | 55 | 224 | 0.0 | 2.0 | 0.00 | 0.01 | 0.00 | 90 | 1018.5 |
| 20260506105602 | 55 | 224 | 1.0 | 2.0 | 0.00 | 0.01 | 0.00 | 90 | 1018.5 |
| 20260506105059 | 55 | 224 | 1.0 | 2.0 | 0.00 | 0.01 | 0.00 | 90 | 1018.5 |
| 20260506104601 | 55 | 224 | 0.0 | 2.0 | 0.00 | 0.01 | 0.00 | 90 | 1018.5 |
| 20260506104039 | 55 | 224 | 0.0 | 1.0 | 0.00 | 0.01 | 0.00 | 90 | 1018.5 |
| 20260506103538 | 55 | 224 | 0.0 | 1.0 | 0.00 | 0.01 | 0.00 | 90 | 1018.5 |
| 20260506103033 | 54 | 224 | 0.0 | 1.0 | 0.00 | 0.01 | 0.00 | 90 | 1018.5 |
| 20260506102532 | 54 | 224 | 0.0 | 1.0 | 0.00 | 0.01 | 0.00 | 89 | 1018.5 |
| 20260506102014 | 54 | 224 | 0.0 | 1.0 | 0.00 | 0.01 | 0.00 | 89 | 1018.5 |
| 20260506101515 | 54 | 224 | 0.0 | 1.0 | 0.00 | 0.01 | 0.00 | 89 | 1018.5 |
| 20260506101015 | 55 | 224 | 0.0 | 1.0 | 0.00 | 0.01 | 0.00 | 89 | 1018.5 |
| 20260506100457 | 55 | 224 | 0.0 | 1.0 | 0.00 | 0.01 | 0.00 | 89 | 1018.5 |
| 20260506095950 | 55 | 224 | 0.0 | 2.0 | 0.00 | 0.01 | 0.00 | 89 | 1018.5 |
| 20260506095448 | 55 | 224 | 1.0 | 2.0 | 0.00 | 0.01 | 0.00 | 89 | 1018.5 |
| 20260506094949 | 55 | 224 | 0.0 | 2.0 | 0.00 | 0.02 | 0.00 | 89 | 1018.5 |
| 20260506094447 | 55 | 224 | 0.0 | 1.0 | 0.00 | 0.02 | 0.00 | 89 | 1018.5 |
| 20260506093949 | 55 | 224 | 0.0 | 1.0 | 0.00 | 0.02 | 0.00 | 89 | 1018.5 |
| 20260506093446 | 55 | 224 | 0.0 | 0.0 | 0.00 | 0.02 | 0.00 | 88 | 1018.5 |
| 20260506092939 | 55 | 224 | 0.0 | 0.0 | 0.00 | 0.02 | 0.00 | 88 | 1018.5 |
| 20260506092433 | 55 | 224 | 0.0 | 0.0 | 0.00 | 0.02 | 0.00 | 88 | 1018.5 |
| 20260506091934 | 55 | 224 | 0.0 | 1.0 | 0.00 | 0.02 | 0.00 | 88 | 1018.5 |
| 20260506091355 | 55 | 224 | 0.0 | 1.0 | 0.00 | 0.02 | 0.00 | 87 | 1018.5 |
| 20260506090819 | 56 | 224 | 0.0 | 1.0 | 0.00 | 0.02 | 0.00 | 87 | 1018.5 |
| 20260506090250 | 56 | 224 | 0.0 | 2.0 | 0.00 | 0.02 | 0.00 | 87 | 1018.5 |
| 20260506085737 | 56 | 224 | 0.0 | 2.0 | 0.00 | 0.02 | 0.00 | 87 | 1018.5 |
| 20260506085237 | 56 | 224 | 0.0 | 1.0 | 0.00 | 0.03 | 0.00 | 87 | 1018.5 |
| 20260506084713 | 56 | 224 | 0.0 | 0.0 | 0.00 | 0.04 | 0.00 | 87 | 1018.5 |
| 20260506084208 | 56 | 224 | 0.0 | 1.0 | 0.00 | 0.04 | 0.00 | 87 | 1018.5 |
| 20260506083703 | 56 | 224 | 0.0 | 1.0 | 0.00 | 0.04 | 0.00 | 87 | 1018.5 |
| 20260506083300 | 57 | 224 | 0.0 | 2.0 | 0.00 | 0.04 | 0.00 | 87 | 1018.5 |
| 20260506083153 | 56 | 224 | 0.0 | 1.0 | 0.00 | 0.04 | 0.00 | 87 | 1018.5 |
| 20260506083145 | 57 | 224 | 0.0 | 1.0 | 0.00 | 0.04 | 0.00 | 87 | 1018.5 |
| 20260506081640 | 57 | 224 | 0.0 | 3.0 | 0.00 | 0.04 | 0.00 | 87 | 1018.5 |
| 20260506081140 | 57 | 224 | 1.0 | 3.0 | 0.00 | 0.04 | 0.00 | 87 | 1018.5 |
| 20260506080632 | 57 | 224 | 1.0 | 4.0 | 0.00 | 0.04 | 0.00 | 87 | 1018.5 |
| 20260506080129 | 57 | 229 | 0.0 | 2.0 | 0.00 | 0.04 | 0.00 | 87 | 1018.5 |
| 20260506072538 | 57 | 227 | 0.0 | 2.0 | 0.00 | 0.05 | 0.00 | 87 | 1018.4 |
| 20260506072033 | 57 | 227 | 0.0 | 2.0 | 0.00 | 0.05 | 0.00 | 87 | 1018.4 |
| 20260506071521 | 57 | 227 | 0.0 | 1.0 | 0.00 | 0.05 | 0.00 | 87 | 1018.2 |
| 20260506070956 | 57 | 227 | 0.0 | 2.0 | 0.00 | 0.05 | 0.00 | 87 | 1018.2 |
| 20260506070452 | 57 | 227 | 0.0 | 2.0 | 0.00 | 0.05 | 0.00 | 87 | 1018.1 |
| 20260506062409 | 56 | 300 | 1.0 | 4.0 | 0.00 | 0.05 | 0.05 | 87 | 1017.9 |
| 20260506062405 | 56 | 296 | 1.0 | 4.0 | 0.00 | 0.05 | 0.05 | 87 | 1018.0 |
| 20260506061359 | 56 | 306 | 2.0 | 4.0 | 0.00 | 0.05 | 0.05 | 87 | 1017.9 |
| 20260506061352 | 56 | 290 | 1.0 | 4.0 | 0.00 | 0.05 | 0.05 | 87 | 1017.9 |
| 20260506060344 | 56 | 282 | 1.0 | 5.0 | 0.00 | 0.05 | 0.05 | 87 | 1017.9 |
| 20260506051330 | 56 | 239 | 1.0 | 5.0 | 0.00 | 0.05 | 0.05 | 86 | 1017.8 |
| 20260506050831 | 57 | 274 | 1.0 | 5.0 | 0.00 | 0.05 | 0.05 | 85 | 1017.5 |
| 20260506050824 | 56 | 282 | 1.0 | 5.0 | 0.00 | 0.05 | 0.05 | 85 | 1017.8 |
| 20260506044806 | 57 | 277 | 2.0 | 7.0 | 0.00 | 0.05 | 0.05 | 84 | 1017.4 |
| 20260506044302 | 57 | 285 | 2.0 | 7.0 | 0.00 | 0.05 | 0.05 | 84 | 1017.4 |
| 20260506043759 | 57 | 289 | 1.0 | 6.0 | 0.00 | 0.05 | 0.05 | 84 | 1017.4 |
| 20260506043259 | 57 | 264 | 2.0 | 5.0 | 0.00 | 0.05 | 0.05 | 84 | 1017.4 |
| 20260506042759 | 57 | 297 | 1.0 | 5.0 | 0.00 | 0.05 | 0.05 | 84 | 1017.4 |
| 20260506042257 | 57 | 217 | 1.0 | 4.0 | 0.00 | 0.05 | 0.05 | 84 | 1017.4 |
| 20260506041755 | 57 | 243 | 1.0 | 7.0 | 0.00 | 0.05 | 0.05 | 84 | 1017.1 |
| 20260506041255 | 57 | 253 | 2.0 | 7.0 | 0.00 | 0.05 | 0.05 | 83 | 1017.1 |
| 20260506040753 | 57 | 263 | 2.0 | 7.0 | 0.00 | 0.05 | 0.05 | 83 | 1017.1 |
| 20260506040250 | 57 | 269 | 2.0 | 9.0 | 0.00 | 0.05 | 0.05 | 83 | 1016.9 |
| 20260506035748 | 57 | 221 | 2.0 | 9.0 | 0.00 | 0.05 | 0.05 | 83 | 1016.9 |
| 20260506035250 | 57 | 238 | 3.0 | 6.0 | 0.00 | 0.05 | 0.05 | 83 | 1016.9 |
| 20260506034749 | 58 | 191 | 2.0 | 6.0 | 0.00 | 0.05 | 0.05 | 83 | 1016.9 |
| 20260506034246 | 58 | 233 | 2.0 | 7.0 | 0.00 | 0.05 | 0.05 | 82 | 1016.9 |
| 20260506033747 | 58 | 233 | 2.0 | 7.0 | 0.00 | 0.05 | 0.05 | 82 | 1016.9 |
| 20260506033247 | 58 | 249 | 2.0 | 7.0 | 0.00 | 0.05 | 0.05 | 82 | 1016.7 |
| 20260506032748 | 58 | 267 | 2.0 | 6.0 | 0.00 | 0.05 | 0.05 | 82 | 1016.7 |
| 20260506032244 | 58 | 274 | 2.0 | 4.0 | 0.00 | 0.05 | 0.05 | 82 | 1016.7 |
| 20260506031743 | 58 | 263 | 3.0 | 10.0 | 0.00 | 0.05 | 0.05 | 82 | 1016.6 |
| 20260506031242 | 58 | 292 | 2.0 | 6.0 | 0.00 | 0.05 | 0.05 | 82 | 1016.6 |
| 20260506031234 | 58 | 236 | 3.0 | 10.0 | 0.00 | 0.05 | 0.05 | 82 | 1016.6 |
| 20260506030235 | 58 | 242 | 2.0 | 7.0 | 0.00 | 0.05 | 0.05 | 82 | 1016.4 |
| 20260506025733 | 58 | 262 | 3.0 | 9.0 | 0.00 | 0.05 | 0.05 | 82 | 1016.4 |
| 20260506025234 | 58 | 228 | 4.0 | 12.0 | 0.00 | 0.05 | 0.05 | 82 | 1016.4 |
| 20260506024731 | 58 | 265 | 4.0 | 12.0 | 0.00 | 0.05 | 0.05 | 81 | 1016.3 |
| 20260506024229 | 58 | 247 | 4.0 | 9.0 | 0.00 | 0.05 | 0.05 | 81 | 1016.3 |
| 20260506023736 | 59 | 229 | 6.0 | 13.0 | 0.00 | 0.05 | 0.05 | 79 | 1016.2 |
| 20260506023730 | 59 | 200 | 5.0 | 11.0 | 0.00 | 0.05 | 0.05 | 80 | 1016.3 |